FW5735 Weather Reports


Display with metric or nautical units.
time (UTC)temp
F
wind
direction
speed
MPH
gust
MPH
rain 1hr
in
rain 24hr
in
rain mn
in
humidity
%
barometer
mb
20260505001510 53 234 8.0 13.0 0.00 0.54 0.03 72 1004.4
20260505000009 53 227 10.0 21.0 0.00 0.54 0.03 71 1004.1
20260504234510 53 229 13.0 23.0 0.00 0.62 0.03 69 1003.7
20260504233005 53 219 11.0 20.0 0.00 0.62 0.03 68 1003.5
20260504231503 54 234 11.0 22.0 0.00 0.62 0.03 64 1003.3
20260504230003 54 259 14.0 24.0 0.00 0.63 0.03 60 1003.3
20260504224605 55 257 12.0 21.0 0.00 0.63 0.03 54 1003.0
20260504223101 55 247 13.0 21.0 0.00 0.63 0.03 48 1002.8
20260504221556 56 245 12.0 30.0 0.00 0.63 0.03 45 1002.6
20260504214557 57 235 10.0 21.0 0.00 0.63 0.03 44 1002.4
20260504213109 58 225 9.0 25.0 0.00 0.63 0.03 44 1002.4
20260504211551 58 259 15.0 30.0 0.00 0.63 0.03 45 1002.4
20260504210049 58 248 11.0 26.0 0.00 0.63 0.03 46 1002.2
20260504204558 57 248 19.0 32.0 0.00 0.63 0.03 46 1001.9
20260504203048 57 219 15.0 27.0 0.00 0.63 0.03 48 1001.8
20260504201544 57 253 10.0 19.0 0.00 0.63 0.03 51 1001.6
20260504200042 56 249 16.0 28.0 0.00 0.63 0.03 50 1001.6
20260504194540 56 257 16.0 34.0 0.00 0.63 0.03 51 1001.3
20260504193053 56 249 14.0 27.0 0.00 0.63 0.03 53 1001.2
20260504191536 55 259 13.0 30.0 0.00 0.63 0.03 55 1001.3
20260504190035 55 258 10.0 29.0 0.00 0.63 0.03 60 1000.9
20260504184530 55 259 11.0 27.0 0.00 0.63 0.03 62 1001.1
20260504183029 54 214 14.0 25.0 0.00 0.63 0.03 64 1000.8
20260504181528 54 225 14.0 25.0 0.00 0.63 0.03 65 1000.6
20260504180025 54 263 12.0 26.0 0.00 0.63 0.03 67 1000.5
20260504174522 55 244 14.0 28.0 0.00 0.63 0.03 66 1000.2
20260504173020 54 247 13.0 29.0 0.00 0.63 0.03 66 1000.0
20260504171517 53 257 16.0 30.0 0.00 0.63 0.03 69 1000.0
20260504050022 39 260 11.0 19.0 0.02 0.55 0.05 97 978.9
20260504044521 39 257 9.0 16.0 0.01 0.54 0.04 97 978.4
20260504043023 39 284 6.0 14.0 0.01 0.54 0.03 97 978.2
20260504041509 41 266 8.0 14.0 0.02 0.54 0.03 98 977.4
20260504040015 40 267 3.0 9.0 0.03 0.54 0.03 98 977.1
20260504034502 40 284 2.0 6.0 0.03 0.54 0.03 98 976.6
20260504033105 40 307 1.0 6.0 0.02 0.53 0.02 98 976.4
20260504031604 40 304 2.0 8.0 0.02 0.52 0.02 98 976.2
20260504030054 40 319 3.0 8.0 0.01 0.50 0.00 98 976.1
20260504024551 41 5 6.0 10.0 0.02 0.50 0.50 98 976.0
20260504023050 41 5 3.0 9.0 0.01 0.50 0.50 98 976.1
20260504021547 41 66 3.0 9.0 0.02 0.50 0.50 98 976.2
20260504020056 42 93 3.0 10.0 0.02 0.50 0.50 98 976.5
20260504014550 42 88 5.0 14.0 0.02 0.49 0.49 98 977.0
20260504013040 41 88 4.0 14.0 0.02 0.49 0.49 98 977.2
20260504011542 41 67 7.0 18.0 0.02 0.48 0.48 98 977.4
20260504010036 41 326 7.0 17.0 0.02 0.48 0.48 98 978.4
20260504004534 41 207 6.0 17.0 0.02 0.47 0.47 98 979.2
20260504003028 40 273 7.0 17.0 0.03 0.46 0.46 98 979.9